| time (UTC) | temp C | wind direction | speed KPH | gust KPH | rain 1hr cm | rain 24hr cm | rain mn cm | humidity % | barometer mb |
| 20260506070857 | 21 | 67 | 0.0 | 1.6 | 0.00 | 0.00 | 0.00 | 51 | 1011.1 |
| 20260506070357 | 21 | 67 | 0.0 | 3.2 | 0.00 | 0.00 | 0.00 | 51 | 1011.1 |
| 20260506062354 | 20 | 45 | 6.4 | 6.4 | 0.00 | 0.00 | 0.00 | 52 | 1011.3 |
| 20260506061854 | 20 | 67 | 0.0 | 4.8 | 0.00 | 0.00 | 0.00 | 53 | 1011.3 |
| 20260506061354 | 19 | 67 | 3.2 | 4.8 | 0.00 | 0.00 | 0.00 | 54 | 1011.3 |
| 20260506060854 | 19 | 45 | 1.6 | 4.8 | 0.00 | 0.00 | 0.00 | 54 | 1011.3 |
| 20260506060353 | 18 | 67 | 4.8 | 4.8 | 0.00 | 0.00 | 0.00 | 56 | 1011.3 |
| 20260506051350 | 18 | 337 | 0.0 | 1.6 | 0.00 | 0.00 | 0.00 | 58 | 1011.4 |
| 20260506050850 | 18 | 0 | 0.0 | 3.2 | 0.00 | 0.00 | 0.00 | 60 | 1011.4 |
| 20260506050350 | 17 | 67 | 0.0 | 0.0 | 0.00 | 0.00 | 0.00 | 60 | 1011.3 |
| 20260506044849 | 16 | 67 | 0.0 | 0.0 | 0.00 | 0.00 | 0.00 | 64 | 1011.3 |
| 20260506044349 | 15 | 67 | 0.0 | 0.0 | 0.00 | 0.00 | 0.00 | 64 | 1011.3 |
| 20260506043848 | 15 | 67 | 0.0 | 0.0 | 0.00 | 0.00 | 0.00 | 66 | 1011.2 |
| 20260506043348 | 15 | 67 | 0.0 | 0.0 | 0.00 | 0.00 | 0.00 | 66 | 1011.2 |
| 20260506042848 | 15 | 67 | 0.0 | 1.6 | 0.00 | 0.00 | 0.00 | 66 | 1011.1 |
| 20260506042347 | 15 | 67 | 0.0 | 0.0 | 0.00 | 0.00 | 0.00 | 69 | 1011.0 |
| 20260506041847 | 13 | 67 | 0.0 | 0.0 | 0.00 | 0.00 | 0.00 | 71 | 1011.1 |
| 20260506041347 | 12 | 67 | 0.0 | 0.0 | 0.00 | 0.00 | 0.00 | 72 | 1011.0 |
| 20260506040847 | 12 | 67 | 0.0 | 1.6 | 0.00 | 0.00 | 0.00 | 72 | 1011.0 |
| 20260506040346 | 12 | 67 | 0.0 | 1.6 | 0.00 | 0.00 | 0.00 | 73 | 1011.0 |
| 20260506035846 | 12 | 67 | 0.0 | 0.0 | 0.00 | 0.00 | 0.00 | 73 | 1011.0 |
| 20260506035346 | 12 | 67 | 0.0 | 0.0 | 0.00 | 0.00 | 0.00 | 74 | 1011.0 |
| 20260506034845 | 11 | 67 | 0.0 | 0.0 | 0.00 | 0.00 | 0.00 | 76 | 1010.9 |
| 20260506034345 | 10 | 67 | 0.0 | 0.0 | 0.00 | 0.00 | 0.00 | 77 | 1011.0 |
| 20260506033845 | 10 | 67 | 0.0 | 1.6 | 0.00 | 0.00 | 0.00 | 78 | 1010.9 |
| 20260506033344 | 10 | 67 | 0.0 | 0.0 | 0.00 | 0.00 | 0.00 | 79 | 1010.9 |
| 20260506032844 | 9 | 67 | 0.0 | 0.0 | 0.00 | 0.00 | 0.00 | 79 | 1010.9 |
| 20260506032344 | 8 | 67 | 0.0 | 1.6 | 0.00 | 0.00 | 0.00 | 79 | 1010.8 |
| 20260506031844 | 8 | 67 | 0.0 | 0.0 | 0.00 | 0.00 | 0.00 | 79 | 1010.8 |
| 20260506031343 | 8 | 67 | 0.0 | 0.0 | 0.00 | 0.00 | 0.00 | 78 | 1010.8 |
| 20260506030843 | 8 | 67 | 0.0 | 0.0 | 0.00 | 0.00 | 0.00 | 78 | 1010.8 |
| 20260506030343 | 8 | 67 | 0.0 | 0.0 | 0.00 | 0.00 | 0.00 | 77 | 1010.7 |
| 20260506025842 | 8 | 67 | 0.0 | 0.0 | 0.00 | 0.00 | 0.00 | 78 | 1010.7 |
| 20260506025342 | 9 | 67 | 0.0 | 0.0 | 0.00 | 0.00 | 0.00 | 77 | 1010.7 |
| 20260506024842 | 9 | 67 | 0.0 | 0.0 | 0.00 | 0.00 | 0.00 | 76 | 1010.6 |
| 20260506024342 | 9 | 67 | 0.0 | 0.0 | 0.00 | 0.00 | 0.00 | 76 | 1010.6 |
| 20260506023841 | 9 | 67 | 0.0 | 0.0 | 0.00 | 0.00 | 0.00 | 77 | 1010.6 |
| 20260506023341 | 9 | 67 | 0.0 | 0.0 | 0.00 | 0.00 | 0.00 | 77 | 1010.6 |
| 20260506022841 | 9 | 67 | 0.0 | 0.0 | 0.00 | 0.00 | 0.00 | 77 | 1010.6 |
| 20260506022340 | 10 | 67 | 0.0 | 0.0 | 0.00 | 0.00 | 0.00 | 77 | 1010.6 |
| 20260506021840 | 10 | 67 | 0.0 | 3.2 | 0.00 | 0.00 | 0.00 | 77 | 1010.5 |
| 20260506021340 | 10 | 67 | 3.2 | 4.8 | 0.00 | 0.00 | 0.00 | 77 | 1010.6 |
| 20260506020840 | 10 | 67 | 1.6 | 3.2 | 0.00 | 0.00 | 0.00 | 77 | 1010.6 |
| 20260506020339 | 10 | 67 | 0.0 | 1.6 | 0.00 | 0.00 | 0.00 | 76 | 1010.6 |
| 20260506015839 | 10 | 67 | 0.0 | 1.6 | 0.00 | 0.00 | 0.00 | 76 | 1010.5 |
| 20260506015339 | 10 | 67 | 0.0 | 3.2 | 0.00 | 0.00 | 0.00 | 76 | 1010.4 |
| 20260506014838 | 10 | 90 | 0.0 | 0.0 | 0.00 | 0.00 | 0.00 | 75 | 1010.5 |
| 20260506014338 | 10 | 90 | 0.0 | 0.0 | 0.00 | 0.00 | 0.00 | 75 | 1010.4 |
| 20260506013838 | 10 | 90 | 0.0 | 3.2 | 0.00 | 0.00 | 0.00 | 75 | 1010.4 |
| 20260506013337 | 10 | 90 | 0.0 | 1.6 | 0.00 | 0.00 | 0.00 | 74 | 1010.6 |
| 20260506012837 | 10 | 90 | 0.0 | 4.8 | 0.00 | 0.00 | 0.00 | 73 | 1010.5 |
| 20260506012337 | 10 | 67 | 0.0 | 3.2 | 0.00 | 0.00 | 0.00 | 73 | 1010.5 |
| 20260506011837 | 10 | 67 | 0.0 | 4.8 | 0.00 | 0.00 | 0.00 | 72 | 1010.5 |
| 20260506011336 | 10 | 67 | 3.2 | 4.8 | 0.00 | 0.00 | 0.00 | 72 | 1010.5 |
| 20260506010836 | 10 | 67 | 0.0 | 3.2 | 0.00 | 0.00 | 0.00 | 72 | 1010.5 |
| 20260506010336 | 10 | 67 | 0.0 | 1.6 | 0.00 | 0.00 | 0.00 | 71 | 1010.5 |
| 20260506005835 | 10 | 45 | 0.0 | 0.0 | 0.00 | 0.00 | 0.00 | 71 | 1010.5 |
| 20260506005335 | 10 | 45 | 0.0 | 0.0 | 0.00 | 0.00 | 0.00 | 71 | 1010.4 |
| 20260506004835 | 10 | 45 | 0.0 | 1.6 | 0.00 | 0.00 | 0.00 | 71 | 1010.4 |
| 20260506004335 | 10 | 45 | 1.6 | 1.6 | 0.00 | 0.00 | 0.00 | 70 | 1010.3 |
| 20260506003834 | 10 | 45 | 1.6 | 1.6 | 0.00 | 0.00 | 0.00 | 70 | 1010.3 |
| 20260506003334 | 11 | 45 | 0.0 | 0.0 | 0.00 | 0.00 | 0.00 | 70 | 1010.3 |
| 20260506002834 | 11 | 45 | 0.0 | 0.0 | 0.00 | 0.00 | 0.00 | 70 | 1010.2 |
| 20260506002333 | 11 | 45 | 0.0 | 1.6 | 0.00 | 0.00 | 0.00 | 70 | 1010.2 |
| 20260506001833 | 11 | 45 | 0.0 | 0.0 | 0.00 | 0.00 | 0.00 | 70 | 1010.1 |
| 20260506001333 | 11 | 45 | 0.0 | 0.0 | 0.00 | 0.00 | 0.00 | 70 | 1009.9 |
| 20260506000833 | 11 | 45 | 0.0 | 1.6 | 0.00 | 0.00 | 0.00 | 70 | 1010.0 |
| 20260506000332 | 11 | 45 | 0.0 | 4.8 | 0.00 | 0.00 | 0.00 | 70 | 1009.9 |
| 20260505235832 | 11 | 45 | 3.2 | 3.2 | 0.00 | 0.00 | 0.00 | 70 | 1009.9 |
| 20260505235332 | 11 | 45 | 0.0 | 0.0 | 0.00 | 0.00 | 0.00 | 70 | 1009.9 |
| 20260505234832 | 11 | 45 | 0.0 | 0.0 | 0.00 | 0.00 | 0.00 | 70 | 1009.8 |
| 20260505234331 | 11 | 45 | 0.0 | 3.2 | 0.00 | 0.00 | 0.00 | 70 | 1009.8 |
| 20260505233831 | 11 | 45 | 3.2 | 4.8 | 0.00 | 0.00 | 0.00 | 70 | 1009.8 |
| 20260505233330 | 11 | 45 | 3.2 | 4.8 | 0.00 | 0.00 | 0.00 | 69 | 1009.9 |
| 20260505232830 | 11 | 45 | 0.0 | 0.0 | 0.00 | 0.00 | 0.00 | 69 | 1009.9 |
| 20260505232330 | 12 | 45 | 3.2 | 4.8 | 0.00 | 0.00 | 0.00 | 68 | 1009.9 |
| 20260505231830 | 12 | 45 | 0.0 | 1.6 | 0.00 | 0.00 | 0.00 | 68 | 1010.0 |
| 20260505231329 | 12 | 45 | 0.0 | 1.6 | 0.00 | 0.00 | 0.00 | 68 | 1010.0 |
| 20260505230829 | 12 | 45 | 0.0 | 3.2 | 0.00 | 0.00 | 0.00 | 67 | 1010.0 |
| 20260505230329 | 12 | 45 | 0.0 | 3.2 | 0.00 | 0.00 | 0.00 | 67 | 1010.1 |
| 20260505225828 | 12 | 67 | 1.6 | 14.5 | 0.00 | 0.00 | 0.00 | 68 | 1009.9 |
| 20260505225328 | 12 | 45 | 4.8 | 4.8 | 0.00 | 0.00 | 0.00 | 68 | 1010.0 |
| 20260505224828 | 12 | 45 | 1.6 | 4.8 | 0.00 | 0.00 | 0.00 | 67 | 1009.9 |
| 20260505224327 | 12 | 45 | 1.6 | 4.8 | 0.00 | 0.00 | 0.00 | 67 | 1010.0 |
| 20260505223827 | 12 | 45 | 1.6 | 3.2 | 0.00 | 0.00 | 0.00 | 66 | 1009.9 |
| 20260505223327 | 12 | 45 | 3.2 | 4.8 | 0.00 | 0.00 | 0.00 | 66 | 1009.9 |
| 20260505222827 | 13 | 45 | 3.2 | 6.4 | 0.00 | 0.00 | 0.00 | 66 | 1009.9 |
| 20260505222326 | 13 | 45 | 3.2 | 4.8 | 0.00 | 0.00 | 0.00 | 66 | 1009.8 |
| 20260505221826 | 13 | 67 | 3.2 | 4.8 | 0.00 | 0.00 | 0.00 | 66 | 1009.9 |
| 20260505221326 | 13 | 45 | 3.2 | 6.4 | 0.00 | 0.00 | 0.00 | 66 | 1009.8 |
| 20260505220825 | 13 | 45 | 3.2 | 6.4 | 0.00 | 0.00 | 0.00 | 66 | 1010.0 |
| 20260505220325 | 13 | 67 | 0.0 | 3.2 | 0.00 | 0.00 | 0.00 | 65 | 1010.0 |
| 20260505215825 | 13 | 67 | 1.6 | 1.6 | 0.00 | 0.00 | 0.00 | 65 | 1010.0 |
| 20260505215325 | 13 | 67 | 0.0 | 4.8 | 0.00 | 0.00 | 0.00 | 65 | 1009.9 |
| 20260505214824 | 13 | 67 | 1.6 | 3.2 | 0.00 | 0.00 | 0.00 | 64 | 1009.9 |
| 20260505214324 | 13 | 45 | 1.6 | 4.8 | 0.00 | 0.00 | 0.00 | 64 | 1009.9 |
| 20260505213824 | 13 | 67 | 0.0 | 3.2 | 0.00 | 0.00 | 0.00 | 64 | 1009.9 |
| 20260505213323 | 13 | 67 | 0.0 | 6.4 | 0.00 | 0.00 | 0.00 | 64 | 1010.0 |
| 20260505212823 | 13 | 45 | 3.2 | 12.9 | 0.00 | 0.00 | 0.00 | 64 | 1010.0 |
| 20260505212323 | 14 | 45 | 1.6 | 4.8 | 0.00 | 0.00 | 0.00 | 63 | 1010.1 |
| 20260505211823 | 14 | 45 | 0.0 | 4.8 | 0.00 | 0.00 | 0.00 | 63 | 1010.0 |
| 20260505211322 | 15 | 22 | 0.0 | 6.4 | 0.00 | 0.00 | 0.00 | 62 | 1010.0 |
| 20260505210822 | 15 | 22 | 4.8 | 9.7 | 0.00 | 0.00 | 0.00 | 63 | 1010.0 |
| 20260505210322 | 15 | 45 | 0.0 | 4.8 | 0.00 | 0.00 | 0.00 | 62 | 1010.0 |
| 20260505205821 | 15 | 45 | 3.2 | 4.8 | 0.00 | 0.00 | 0.00 | 62 | 1009.9 |
| 20260505205321 | 15 | 67 | 0.0 | 6.4 | 0.00 | 0.00 | 0.00 | 62 | 1009.8 |
| 20260505204821 | 15 | 67 | 0.0 | 4.8 | 0.00 | 0.00 | 0.00 | 62 | 1009.8 |
| 20260505204320 | 15 | 67 | 4.8 | 6.4 | 0.00 | 0.00 | 0.00 | 61 | 1009.8 |
| 20260505203820 | 15 | 45 | 0.0 | 3.2 | 0.00 | 0.00 | 0.00 | 60 | 1009.9 |
| 20260505203320 | 15 | 45 | 3.2 | 3.2 | 0.00 | 0.00 | 0.00 | 58 | 1009.9 |
| 20260505202820 | 16 | 22 | 0.0 | 6.4 | 0.00 | 0.00 | 0.00 | 56 | 1009.9 |
| 20260505202319 | 16 | 337 | 4.8 | 4.8 | 0.00 | 0.00 | 0.00 | 54 | 1009.8 |
| 20260505201819 | 16 | 202 | 0.0 | 4.8 | 0.00 | 0.00 | 0.00 | 53 | 1009.7 |
| 20260505201319 | 16 | 202 | 0.0 | 3.2 | 0.00 | 0.00 | 0.00 | 53 | 1009.7 |
| 20260505200818 | 16 | 202 | 3.2 | 3.2 | 0.00 | 0.00 | 0.00 | 53 | 1009.7 |
| 20260505200318 | 17 | 180 | 0.0 | 1.6 | 0.00 | 0.00 | 0.00 | 52 | 1009.5 |
| 20260505195818 | 16 | 180 | 0.0 | 1.6 | 0.00 | 0.00 | 0.00 | 52 | 1009.4 |
| 20260505195318 | 16 | 180 | 0.0 | 1.6 | 0.00 | 0.00 | 0.00 | 52 | 1009.5 |
| 20260505194817 | 16 | 180 | 0.0 | 0.0 | 0.00 | 0.00 | 0.00 | 52 | 1009.5 |
| 20260505194317 | 17 | 180 | 0.0 | 0.0 | 0.00 | 0.00 | 0.00 | 51 | 1009.4 |
| 20260505193817 | 17 | 180 | 0.0 | 1.6 | 0.00 | 0.00 | 0.00 | 51 | 1009.4 |
| 20260505193316 | 17 | 180 | 0.0 | 1.6 | 0.00 | 0.00 | 0.00 | 51 | 1009.5 |
| 20260505192816 | 17 | 202 | 0.0 | 0.0 | 0.00 | 0.00 | 0.00 | 51 | 1009.5 |
| 20260505192316 | 17 | 202 | 0.0 | 0.0 | 0.00 | 0.00 | 0.00 | 51 | 1009.4 |
| 20260505191815 | 17 | 202 | 0.0 | 3.2 | 0.00 | 0.00 | 0.00 | 50 | 1009.4 |
| 20260505191315 | 17 | 202 | 0.0 | 0.0 | 0.00 | 0.00 | 0.00 | 50 | 1009.4 |
| 20260505190815 | 17 | 202 | 0.0 | 0.0 | 0.00 | 0.00 | 0.00 | 50 | 1009.3 |
| 20260505190315 | 17 | 202 | 0.0 | 3.2 | 0.00 | 0.00 | 0.00 | 49 | 1009.4 |
| 20260505185814 | 17 | 202 | 0.0 | 3.2 | 0.00 | 0.00 | 0.00 | 49 | 1009.4 |
| 20260505185314 | 18 | 202 | 0.0 | 1.6 | 0.00 | 0.00 | 0.00 | 48 | 1009.5 |
| 20260505184814 | 18 | 202 | 0.0 | 0.0 | 0.00 | 0.00 | 0.00 | 48 | 1009.4 |
| 20260505184313 | 18 | 202 | 0.0 | 0.0 | 0.00 | 0.00 | 0.00 | 47 | 1009.2 |
| 20260505183813 | 18 | 202 | 0.0 | 0.0 | 0.00 | 0.00 | 0.00 | 47 | 1009.2 |
| 20260505183313 | 18 | 202 | 0.0 | 0.0 | 0.00 | 0.00 | 0.00 | 47 | 1009.2 |
| 20260505182813 | 18 | 202 | 0.0 | 0.0 | 0.00 | 0.00 | 0.00 | 47 | 1009.1 |
| 20260505182312 | 18 | 202 | 0.0 | 1.6 | 0.00 | 0.00 | 0.00 | 47 | 1009.2 |
| 20260505181812 | 18 | 202 | 0.0 | 4.8 | 0.00 | 0.00 | 0.00 | 47 | 1009.0 |
| 20260505181312 | 19 | 202 | 1.6 | 8.0 | 0.00 | 0.00 | 0.00 | 47 | 1009.0 |
| 20260505180811 | 19 | 90 | 0.0 | 4.8 | 0.00 | 0.00 | 0.00 | 47 | 1008.8 |
| 20260505180311 | 19 | 90 | 4.8 | 6.4 | 0.00 | 0.00 | 0.00 | 47 | 1008.6 |
| 20260505175811 | 19 | 90 | 0.0 | 4.8 | 0.00 | 0.00 | 0.00 | 47 | 1008.4 |
| 20260505175310 | 20 | 67 | 4.8 | 4.8 | 0.00 | 0.00 | 0.00 | 46 | 1008.3 |
| 20260505174810 | 20 | 90 | 0.0 | 1.6 | 0.00 | 0.00 | 0.00 | 45 | 1008.5 |
| 20260505174310 | 20 | 90 | 0.0 | 0.0 | 0.00 | 0.00 | 0.00 | 45 | 1008.3 |
| 20260505173810 | 20 | 90 | 0.0 | 9.7 | 0.00 | 0.00 | 0.00 | 45 | 1008.3 |
| 20260505173309 | 20 | 67 | 4.8 | 9.7 | 0.00 | 0.00 | 0.00 | 44 | 1008.3 |
| 20260505172809 | 21 | 67 | 9.7 | 17.7 | 0.00 | 0.00 | 0.00 | 43 | 1008.3 |
| 20260505172309 | 22 | 67 | 9.7 | 14.5 | 0.00 | 0.00 | 0.00 | 39 | 1008.2 |
| 20260505171808 | 22 | 337 | 0.0 | 1.6 | 0.00 | 0.00 | 0.00 | 37 | 1008.2 |
| 20260505171308 | 23 | 292 | 0.0 | 0.0 | 0.00 | 0.00 | 0.00 | 38 | 1008.2 |
| 20260505170808 | 23 | 292 | 0.0 | 0.0 | 0.00 | 0.00 | 0.00 | 38 | 1008.2 |
| 20260505170308 | 23 | 292 | 0.0 | 0.0 | 0.00 | 0.00 | 0.00 | 38 | 1008.2 |
| 20260505165807 | 23 | 292 | 0.0 | 3.2 | 0.00 | 0.00 | 0.00 | 37 | 1008.2 |
| 20260505165307 | 23 | 292 | 0.0 | 3.2 | 0.00 | 0.00 | 0.00 | 37 | 1008.2 |
| 20260505164807 | 23 | 292 | 0.0 | 4.8 | 0.00 | 0.00 | 0.00 | 37 | 1008.2 |
| 20260505164306 | 23 | 292 | 0.0 | 6.4 | 0.00 | 0.00 | 0.00 | 37 | 1008.2 |
| 20260505163806 | 23 | 292 | 0.0 | 3.2 | 0.00 | 0.00 | 0.00 | 37 | 1008.2 |
| 20260505163306 | 23 | 292 | 0.0 | 6.4 | 0.00 | 0.00 | 0.00 | 36 | 1008.2 |
| 20260505162805 | 23 | 292 | 0.0 | 6.4 | 0.00 | 0.00 | 0.00 | 36 | 1008.2 |
| 20260505162307 | 23 | 292 | 0.0 | 6.4 | 0.00 | 0.00 | 0.00 | 37 | 1008.2 |
| 20260505161805 | 23 | 292 | 0.0 | 1.6 | 0.00 | 0.00 | 0.00 | 36 | 1008.2 |
| 20260505161305 | 24 | 315 | 0.0 | 6.4 | 0.00 | 0.00 | 0.00 | 34 | 1008.2 |
| 20260505160804 | 24 | 315 | 6.4 | 6.4 | 0.00 | 0.00 | 0.00 | 34 | 1008.2 |
| 20260505160304 | 24 | 315 | 0.0 | 1.6 | 0.00 | 0.00 | 0.00 | 33 | 1008.2 |
| 20260505153302 | 28 | 315 | 0.0 | 11.3 | 0.00 | 0.00 | 0.00 | 30 | 1008.3 |
| 20260505152802 | 29 | 315 | 0.0 | 4.8 | 0.00 | 0.00 | 0.00 | 30 | 1008.2 |
| 20260505152304 | 30 | 225 | 0.0 | 14.5 | 0.00 | 0.00 | 0.00 | 29 | 1008.3 |
| 20260505151801 | 31 | 180 | 11.3 | 16.1 | 0.00 | 0.00 | 0.00 | 28 | 1008.3 |
| 20260505151301 | 31 | 292 | 0.0 | 16.1 | 0.00 | 0.00 | 0.00 | 28 | 1008.4 |
| 20260505150801 | 31 | 292 | 0.0 | 3.2 | 0.00 | 0.00 | 0.00 | 29 | 1008.4 |
| 20260505150301 | 30 | 292 | 1.6 | 6.4 | 0.00 | 0.00 | 0.00 | 29 | 1008.6 |
| 20260505140257 | 26 | 292 | 1.6 | 9.7 | 0.00 | 0.00 | 0.00 | 34 | 1009.5 |
| 20260505130253 | 26 | 22 | 0.0 | 8.0 | 0.00 | 0.00 | 0.00 | 31 | 1010.2 |
| 20260505124753 | 25 | 292 | 8.0 | 9.7 | 0.00 | 0.00 | 0.00 | 32 | 1010.4 |
| 20260505124252 | 26 | 0 | 0.0 | 14.5 | 0.00 | 0.00 | 0.00 | 31 | 1010.4 |
| 20260505123752 | 26 | 292 | 0.0 | 14.5 | 0.00 | 0.00 | 0.00 | 32 | 1010.5 |
| 20260505123252 | 26 | 292 | 0.0 | 6.4 | 0.00 | 0.00 | 0.00 | 33 | 1010.6 |
| 20260505122751 | 26 | 292 | 3.2 | 8.0 | 0.00 | 0.00 | 0.00 | 34 | 1010.6 |
| 20260505122251 | 26 | 45 | 0.0 | 6.4 | 0.00 | 0.00 | 0.00 | 32 | 1010.7 |
| 20260505121751 | 26 | 0 | 1.6 | 8.0 | 0.00 | 0.00 | 0.00 | 32 | 1010.7 |
| 20260505121251 | 26 | 292 | 8.0 | 8.0 | 0.00 | 0.00 | 0.00 | 31 | 1010.8 |
| 20260505120750 | 27 | 315 | 0.0 | 9.7 | 0.00 | 0.00 | 0.00 | 33 | 1010.8 |
| 20260505120250 | 26 | 292 | 3.2 | 6.4 | 0.00 | 0.00 | 0.00 | 34 | 1010.9 |
| 20260505115750 | 26 | 292 | 0.0 | 6.4 | 0.00 | 0.00 | 0.00 | 32 | 1011.0 |
| 20260505115249 | 26 | 292 | 4.8 | 9.7 | 0.00 | 0.00 | 0.00 | 34 | 1011.1 |
| 20260505114749 | 25 | 292 | 1.6 | 3.2 | 0.00 | 0.00 | 0.00 | 34 | 1011.2 |
| 20260505114249 | 25 | 337 | 0.0 | 6.4 | 0.00 | 0.00 | 0.00 | 33 | 1011.2 |
| 20260505113749 | 26 | 45 | 0.0 | 8.0 | 0.00 | 0.00 | 0.00 | 31 | 1011.4 |
| 20260505113248 | 27 | 0 | 6.4 | 9.7 | 0.00 | 0.00 | 0.00 | 34 | 1011.3 |
| 20260505112748 | 26 | 292 | 1.6 | 9.7 | 0.00 | 0.00 | 0.00 | 36 | 1011.5 |
| 20260505112248 | 26 | 315 | 9.7 | 9.7 | 0.00 | 0.00 | 0.00 | 34 | 1011.5 |
| 20260505111747 | 25 | 315 | 1.6 | 9.7 | 0.00 | 0.00 | 0.00 | 34 | 1011.5 |
| 20260505111247 | 26 | 337 | 3.2 | 11.3 | 0.00 | 0.00 | 0.00 | 32 | 1011.5 |
| 20260505110747 | 26 | 45 | 0.0 | 11.3 | 0.00 | 0.00 | 0.00 | 34 | 1011.6 |
| 20260505110246 | 26 | 202 | 0.0 | 14.5 | 0.00 | 0.00 | 0.00 | 36 | 1011.6 |
| 20260505101744 | 26 | 292 | 3.2 | 12.9 | 0.00 | 0.00 | 0.00 | 40 | 1012.1 |
| 20260505101244 | 25 | 292 | 0.0 | 9.7 | 0.00 | 0.00 | 0.00 | 40 | 1012.1 |
| 20260505100743 | 25 | 292 | 3.2 | 6.4 | 0.00 | 0.00 | 0.00 | 38 | 1012.1 |
| 20260505100243 | 25 | 292 | 0.0 | 14.5 | 0.00 | 0.00 | 0.00 | 41 | 1012.2 |
| 20260505095743 | 25 | 225 | 9.7 | 9.7 | 0.00 | 0.00 | 0.00 | 39 | 1012.3 |
| 20260505095242 | 26 | 337 | 3.2 | 6.4 | 0.00 | 0.00 | 0.00 | 39 | 1012.3 |
| 20260505094742 | 26 | 247 | 4.8 | 9.7 | 0.00 | 0.00 | 0.00 | 41 | 1012.5 |
| 20260505094242 | 25 | 292 | 0.0 | 3.2 | 0.00 | 0.00 | 0.00 | 41 | 1012.4 |
| 20260505093742 | 25 | 292 | 0.0 | 6.4 | 0.00 | 0.00 | 0.00 | 41 | 1012.5 |
| 20260505093241 | 25 | 315 | 0.0 | 6.4 | 0.00 | 0.00 | 0.00 | 40 | 1012.6 |
| 20260505092741 | 25 | 292 | 0.0 | 14.5 | 0.00 | 0.00 | 0.00 | 42 | 1012.6 |
| 20260505092241 | 25 | 292 | 6.4 | 6.4 | 0.00 | 0.00 | 0.00 | 42 | 1012.7 |
| 20260505091740 | 25 | 247 | 6.4 | 6.4 | 0.00 | 0.00 | 0.00 | 42 | 1012.7 |
| 20260505091240 | 25 | 202 | 0.0 | 11.3 | 0.00 | 0.00 | 0.00 | 43 | 1012.8 |
| 20260505090740 | 24 | 247 | 0.0 | 6.4 | 0.00 | 0.00 | 0.00 | 43 | 1012.9 |
| 20260505090239 | 24 | 292 | 0.0 | 6.4 | 0.00 | 0.00 | 0.00 | 44 | 1012.9 |
| 20260505085739 | 23 | 315 | 0.0 | 16.1 | 0.00 | 0.00 | 0.00 | 42 | 1012.9 |
| 20260505085239 | 24 | 337 | 3.2 | 8.0 | 0.00 | 0.00 | 0.00 | 42 | 1012.9 |
| 20260505084739 | 23 | 247 | 1.6 | 3.2 | 0.00 | 0.00 | 0.00 | 44 | 1013.0 |
| 20260505084238 | 24 | 292 | 0.0 | 6.4 | 0.00 | 0.00 | 0.00 | 42 | 1013.0 |
| 20260505083738 | 24 | 292 | 1.6 | 12.9 | 0.00 | 0.00 | 0.00 | 43 | 1013.1 |
| 20260505083238 | 24 | 315 | 4.8 | 11.3 | 0.00 | 0.00 | 0.00 | 44 | 1013.1 |
| 20260505082737 | 23 | 315 | 0.0 | 9.7 | 0.00 | 0.00 | 0.00 | 43 | 1013.1 |
| 20260505082237 | 24 | 247 | 0.0 | 11.3 | 0.00 | 0.00 | 0.00 | 43 | 1013.2 |
| 20260505081737 | 23 | 292 | 0.0 | 3.2 | 0.00 | 0.00 | 0.00 | 43 | 1013.3 |
| 20260505081237 | 23 | 292 | 0.0 | 6.4 | 0.00 | 0.00 | 0.00 | 44 | 1013.3 |
| 20260505080736 | 23 | 247 | 0.0 | 6.4 | 0.00 | 0.00 | 0.00 | 44 | 1013.2 |
| 20260505080236 | 22 | 315 | 0.0 | 4.8 | 0.00 | 0.00 | 0.00 | 46 | 1013.3 |
| 20260505075736 | 21 | 315 | 0.0 | 6.4 | 0.00 | 0.00 | 0.00 | 46 | 1013.4 |
| 20260505075235 | 20 | 292 | 6.4 | 6.4 | 0.00 | 0.00 | 0.00 | 48 | 1013.3 |
| 20260505074735 | 20 | 22 | 0.0 | 3.2 | 0.00 | 0.00 | 0.00 | 49 | 1013.4 |
| 20260505074235 | 20 | 22 | 3.2 | 3.2 | 0.00 | 0.00 | 0.00 | 50 | 1013.5 |
| 20260505073734 | 20 | 22 | 1.6 | 3.2 | 0.00 | 0.00 | 0.00 | 50 | 1013.5 |
| 20260505073234 | 19 | 45 | 0.0 | 3.2 | 0.00 | 0.00 | 0.00 | 51 | 1013.5 |
| 20260505072734 | 19 | 0 | 1.6 | 3.2 | 0.00 | 0.00 | 0.00 | 52 | 1013.5 |
| 20260505072234 | 18 | 22 | 0.0 | 1.6 | 0.00 | 0.00 | 0.00 | 54 | 1013.6 |
| 20260505071733 | 18 | 45 | 0.0 | 3.2 | 0.00 | 0.00 | 0.00 | 55 | 1013.6 |